[[{"header":{"parameterUnit":"m.s-1","parameterCategory":1,"la1":30.2991,"la2":30.254,"lo1":-89.0895,"lo2":-89.0444,"dy":0.0017,"dx":0.0017,"nx":28,"ny":28,"refTime":"2024-12-23T03:00:00:Z","depth":0,"parameterNumber":2,"parameterNumberName":"U-component_of_WINDS"},"data":[0,0,0,0,0,0,0,0,0,0,0,0,0,0,0,0,0,0,0,0,0,0,0,0,0,0,0,0,0,0,0,0,0,0,0,0,0,0,0,0,0,0,0,0,0,0,0,0,0,0,0,0,0,0,0,0,0,0,-3.7273,-3.7274,0,-3.7323,-3.7323,-3.7324,-3.7202,-3.7198,-3.7194,-3.7191,-3.7246,-3.7251,-3.7256,0,0,0,0,0,0,0,0,0,0,0,0,0,-3.7076,-3.7081,-3.7273,-3.7274,-3.7274,-3.7323,-3.7323,-3.7324,-3.7203,-3.7198,-3.7193,-3.7189,-3.7244,-3.725,-3.7256,0,0,0,0,0,0,0,0,0,0,0,0,0,-3.7148,-3.7082,-3.7273,-3.7219,-3.7215,-3.7323,-3.7323,-3.7324,-3.7204,-3.7198,-3.7192,-3.7187,-3.7242,-3.725,-3.7257,-3.742,0,0,-3.728,-3.7284,0,0,0,0,0,0,0,0,-3.7144,-3.7155,-3.7227,-3.7223,-3.7219,-3.725,-3.7274,-3.7357,-3.7205,-3.7208,-3.7191,-3.7184,-3.7252,-3.7259,-3.7281,-3.7423,-3.7425,-3.7281,-3.7286,-3.7289,-3.7291,0,0,0,0,0,0,0,-3.7139,-3.7152,-3.7293,-3.7228,-3.7223,-3.7194,-3.7198,-3.7289,-3.7262,-3.7207,-3.7199,-3.7206,-3.7249,-3.7274,-3.7281,-3.7426,-3.7281,-3.7288,-3.7292,-3.7295,-3.7705,-3.7711,0,0,0,0,0,0,-3.714,-3.7149,-3.7291,-3.7294,-3.7166,-3.7202,-3.7206,-3.7246,-3.7261,-3.7257,-3.7211,-3.72,-3.7264,-3.7273,-3.7283,-3.7476,-3.7289,-3.7296,-3.73,-3.7699,-3.7707,-3.7714,0,0,0,0,0,0,-3.7137,-3.7154,-3.7289,-3.7219,-3.7234,-3.7212,-3.7257,-3.725,-3.7275,-3.7263,-3.7258,-3.7241,-3.7259,-3.7272,-3.7387,-3.7476,-3.7299,-3.7306,-3.7692,-3.7701,-3.771,-3.7863,0,0,0,0,0,0,-3.7132,-3.7154,-3.7214,-3.7221,-3.7238,-3.7392,-3.7263,-3.7255,-3.7288,-3.7274,-3.729,-3.7288,-3.7256,-3.7376,-3.7394,-3.7483,-3.7312,-3.7684,-3.7696,-3.7707,-3.785,-3.7877,-3.7899,0,0,0,0,0,-3.7125,-3.7256,-3.7218,-3.7236,-3.7314,-3.7397,-3.7407,-3.7367,-3.7295,-3.7357,-3.735,-3.7287,-3.7463,-3.7389,-3.7408,-3.7501,-3.7678,-3.7692,-3.7706,-3.7839,-3.7871,-3.7899,0,0,0,0,0,0,-3.7261,-3.7256,-3.7214,-3.7351,-3.7375,-3.7376,-3.7453,-3.7402,-3.7448,-3.7434,-3.7383,-3.7387,-3.7513,-3.7518,-3.7435,-3.766,-3.7558,-3.7577,-3.7653,-3.7683,-3.7708,-3.7705,-3.7319,0,0,0,0,0,-3.7307,-3.7374,-3.7366,-3.7488,-3.7502,-3.7476,-3.7511,-3.7477,-3.7501,-3.7511,-3.7512,-3.7539,-3.76,-3.7641,-3.7697,-3.7849,-3.7852,-3.7923,-3.7947,-3.7968,-3.7986,-3.8068,-3.81,-3.776,-3.776,-3.776,0,0,-3.7403,-3.7408,-3.7454,-3.7515,-3.753,-3.7602,-3.7485,-3.7566,-3.762,-3.7524,-3.7632,-3.7634,-3.7661,-3.7796,-3.7855,-3.7804,-3.808,-3.7986,-3.8002,-3.8009,-3.8086,-3.8119,-3.8147,-3.777,-3.7768,-3.7767,0,0,-3.7614,-3.7624,-3.7728,-3.7745,-3.7769,-3.775,-3.7775,-3.7784,-3.7782,-3.7889,-3.7819,-3.7883,-3.7989,-3.8011,-3.8036,-3.8257,-3.8202,-3.8276,-3.8406,-3.8488,-3.8514,-3.8538,-3.8619,-3.8648,-3.8293,-3.8294,-3.8294,0,-3.7731,-3.7835,-3.7787,-3.7874,-3.7904,-3.7818,-3.7924,-3.7943,-3.7985,-3.8008,-3.795,-3.8082,-3.8093,-3.8233,-3.8287,-3.8309,-3.8338,-3.8275,-3.8514,-3.8537,-3.8559,-3.8635,-3.8666,-3.8303,-3.8302,-3.8301,-3.83,0,-3.7979,-3.8052,-3.8133,-3.8174,-3.8213,-3.8309,-3.8276,-3.8322,-3.8285,-3.8274,-3.8385,-3.8396,-3.8453,-3.8483,-3.8449,-3.8619,-3.8587,-3.8522,-3.8419,-3.8601,-3.8672,-3.8701,-3.8316,-3.8312,-3.831,-3.8308,0,0,-3.8279,-3.8292,-3.8323,-3.8341,-3.8361,-3.8418,-3.851,-3.8565,-3.8606,-3.8637,-3.8714,-3.8806,-3.8746,-3.8775,-3.8742,-3.8813,-3.899,-3.874,-3.874,-3.8788,-3.9181,-3.9231,-3.9266,-3.8952,-3.8958,-3.8962,-3.9179,0,-3.849,-3.8647,-3.8606,-3.8763,-3.8832,-3.8752,-3.8832,-3.8854,-3.8846,-3.8904,-3.8894,-3.8961,-3.8876,-3.8894,-3.896,-3.8954,-3.9069,-3.8938,-3.9026,-3.903,-3.9024,-3.9303,-3.9356,-3.956,-3.9207,-3.9211,-3.9215,0,-3.8757,-3.8798,-3.8962,-3.8971,-3.8999,-3.9072,-3.9119,-3.9175,-3.9198,-3.9187,-3.922,-3.9173,-3.9265,-3.916,-3.9288,-3.92,-3.9233,-3.9236,-3.9243,-3.9252,-3.9135,-3.9321,-3.9624,-3.9656,-3.9258,-3.9254,-3.9251,0,-3.8962,-3.9058,-3.9169,-3.9187,-3.92,-3.9254,-3.9262,-3.928,-3.9316,-3.9358,-3.9381,-3.9433,-3.9463,-3.9505,-3.9474,-3.94,-3.9608,-3.95,-3.9604,-3.9605,-3.9653,-3.9651,-3.9969,-3.9671,-3.9671,-3.967,-3.967,0,-3.9203,-3.9307,-3.9262,-3.933,-3.9445,-3.9397,-3.9513,-3.9512,-3.9528,-3.9596,-3.953,-3.9596,-3.955,-3.9612,-3.9588,-3.9699,-3.9712,-3.9708,-3.9701,-3.9715,-3.9716,-3.9738,-3.9724,-3.9678,-3.9676,-3.9675,-3.9673,0,-3.9453,-3.9426,-3.9542,-3.9545,-3.9549,-3.9633,-3.9636,-3.9701,-3.9687,-3.9774,-3.9792,-3.9771,-3.9841,-3.9814,-3.9888,-3.9872,-4.0015,-3.9988,-4.0007,-4.0001,-4.0107,-4.0099,-4.0452,-4.0497,-4.0169,-4.0172,-4.0175,0,-3.961,-3.9688,-3.9699,-3.9739,-3.9752,-3.9818,-3.9854,-3.9811,-3.9851,-3.9885,-3.9946,-4.0009,-4.0058,-4.0174,-4.0167,-4.0224,-4.0199,-4.0319,-4.0207,-4.022,-4.0204,-4.0201,-4.0209,-4.0342,-4.0346,-4.0349,-4.0352,0,-3.9891,-3.9874,-3.9928,-3.9979,-4.0023,-4.0061,-4.0093,-4.013,-4.0088,-4.0137,-4.0207,-4.0245,-4.0321,-4.0386,-4.0437,-4.0447,-4.0394,-4.0386,-4.0414,-4.0431,-4.044,-4.0439,-4.007,-4.0379,-4.0376,-4.0374,-4.0373,-4.0372,-4.0101,-4.0167,-4.0186,-4.0249,-4.0268,-4.0299,-4.036,-4.0354,-4.0411,-4.0469,-4.044,-4.0522,-4.0545,-4.0607,-4.0625,-4.0689,-4.0643,-4.0682,-4.0692,-4.0704,-4.0718,-4.0427,-4.0698,-4.0697,-4.0696,-4.0696,-4.0695,0,-4.0381,-4.0389,-4.0447,-4.0493,-4.0544,-4.0487,-4.0519,-4.0565,-4.0638,-4.0663,-4.0712,-4.0794,-4.0857,-4.0854,-4.0913,-4.0965,-4.0943,-4.0982,-4.0979,-4.0983,-4.0755,-4.0727,-4.1,-4.1,-4.1,-4.1,-4.1,-4.1,-4.0533,-4.0643,-4.0628,-4.0747,-4.0754,-4.0833,-4.0857,-4.0887,-4.0906,-4.1,-4.1052,-4.1049,-4.1064,-4.1123,-4.1179,-4.1176,-4.1202,-4.1252,-4.1241,-4.1029,-4.0999,-4.097,-4.0943,-4.1257,-4.1257,-4.1463,-4.1465,-4.1467]},{"header":{"parameterUnit":"m.s-1","parameterCategory":1,"la1":30.2991,"la2":30.254,"lo1":-89.0895,"lo2":-89.0444,"dy":0.0017,"dx":0.0017,"nx":28,"ny":28,"refTime":"2024-12-23T03:00:00:Z","depth":0,"parameterNumber":3,"parameterNumberName":"V-component_of_WINDS"},"data":[0,0,0,0,0,0,0,0,0,0,0,0,0,0,0,0,0,0,0,0,0,0,0,0,0,0,0,0,0,0,0,0,0,0,0,0,0,0,0,0,0,0,0,0,0,0,0,0,0,0,0,0,0,0,0,0,0,0,-2.325,-2.325,0,-2.3247,-2.3247,-2.3247,-2.3207,-2.3206,-2.3205,-2.3204,-2.3201,-2.3202,-2.3203,0,0,0,0,0,0,0,0,0,0,0,0,0,-2.322,-2.3221,-2.325,-2.325,-2.325,-2.3247,-2.3247,-2.3247,-2.3207,-2.3206,-2.3205,-2.3203,-2.3201,-2.3202,-2.3203,0,0,0,0,0,0,0,0,0,0,0,0,0,-2.3227,-2.3221,-2.325,-2.323,-2.3228,-2.3247,-2.3247,-2.3247,-2.3207,-2.3206,-2.3204,-2.3203,-2.3201,-2.3202,-2.3203,-2.3243,0,0,-2.3207,-2.3208,0,0,0,0,0,0,0,0,-2.3226,-2.3228,-2.3233,-2.3231,-2.3229,-2.3226,-2.3236,-2.3246,-2.3208,-2.3215,-2.3204,-2.3202,-2.3211,-2.3211,-2.3214,-2.3242,-2.3242,-2.3208,-2.3208,-2.3209,-2.3209,0,0,0,0,0,0,0,-2.3226,-2.3228,-2.3249,-2.3233,-2.3231,-2.322,-2.322,-2.3237,-2.3222,-2.3214,-2.3211,-2.3212,-2.321,-2.3213,-2.3214,-2.3242,-2.3208,-2.3209,-2.321,-2.321,-2.3301,-2.3303,0,0,0,0,0,0,-2.3228,-2.3228,-2.3249,-2.3249,-2.3224,-2.3222,-2.3221,-2.3229,-2.3221,-2.3219,-2.3213,-2.321,-2.3211,-2.3212,-2.3214,-2.3258,-2.3209,-2.321,-2.3211,-2.33,-2.3302,-2.3304,0,0,0,0,0,0,-2.3228,-2.3231,-2.3249,-2.3238,-2.3239,-2.3224,-2.3233,-2.3229,-2.3233,-2.322,-2.3217,-2.3219,-2.321,-2.3212,-2.3235,-2.3258,-2.3211,-2.3212,-2.3298,-2.33,-2.3303,-2.3349,0,0,0,0,0,0,-2.3227,-2.3231,-2.3246,-2.3238,-2.324,-2.3272,-2.3234,-2.323,-2.3235,-2.3231,-2.3226,-2.3223,-2.3209,-2.3234,-2.3237,-2.3259,-2.3213,-2.3296,-2.3299,-2.3302,-2.3345,-2.3352,-2.3358,0,0,0,0,0,-2.3226,-2.3259,-2.3247,-2.325,-2.3258,-2.3273,-2.3274,-2.3257,-2.3237,-2.3252,-2.3244,-2.3223,-2.3255,-2.3236,-2.324,-2.3262,-2.3294,-2.3298,-2.3302,-2.3342,-2.3351,-2.3358,0,0,0,0,0,0,-2.327,-2.3258,-2.3244,-2.3275,-2.3275,-2.3266,-2.3284,-2.3267,-2.3273,-2.3269,-2.3247,-2.3247,-2.3274,-2.327,-2.325,-2.3299,-2.3271,-2.3275,-2.33,-2.3309,-2.3315,-2.3316,-2.3214,0,0,0,0,0,-2.3283,-2.3296,-2.3285,-2.3314,-2.3314,-2.3299,-2.3305,-2.3292,-2.3291,-2.3291,-2.3285,-2.3285,-2.3294,-2.3301,-2.331,-2.3344,-2.3342,-2.3361,-2.3368,-2.3374,-2.3378,-2.3395,-2.3403,-2.3316,-2.3316,-2.3315,0,0,-2.3311,-2.3306,-2.3315,-2.3322,-2.3321,-2.3334,-2.33,-2.3316,-2.3325,-2.3293,-2.3315,-2.3311,-2.3309,-2.3338,-2.3351,-2.3336,-2.3401,-2.3378,-2.3383,-2.3384,-2.34,-2.3408,-2.3415,-2.3318,-2.3318,-2.3317,0,0,-2.3368,-2.3366,-2.3389,-2.3388,-2.3386,-2.3376,-2.3381,-2.3374,-2.337,-2.3391,-2.3367,-2.3379,-2.3396,-2.3396,-2.3398,-2.3454,-2.3435,-2.3457,-2.3493,-2.351,-2.3517,-2.3523,-2.3542,-2.3549,-2.3461,-2.3462,-2.3462,0,-2.3403,-2.3423,-2.3403,-2.3421,-2.3424,-2.3395,-2.3418,-2.3418,-2.3419,-2.3422,-2.3406,-2.3426,-2.3424,-2.3452,-2.3465,-2.3468,-2.3474,-2.3458,-2.3517,-2.3523,-2.3528,-2.3547,-2.3554,-2.3464,-2.3464,-2.3464,-2.3463,0,-2.3465,-2.3479,-2.3498,-2.3499,-2.3504,-2.3525,-2.3508,-2.3516,-2.3502,-2.3493,-2.3515,-2.351,-2.3517,-2.3523,-2.351,-2.3549,-2.354,-2.3521,-2.3492,-2.354,-2.3556,-2.3563,-2.3468,-2.3467,-2.3466,-2.3466,0,0,-2.3551,-2.354,-2.3547,-2.3547,-2.3542,-2.3552,-2.3571,-2.3577,-2.3584,-2.3585,-2.36,-2.3615,-2.3597,-2.3599,-2.3586,-2.3601,-2.3645,-2.3579,-2.3579,-2.3591,-2.3687,-2.3702,-2.371,-2.3632,-2.3633,-2.3634,-2.3687,0,-2.3606,-2.3637,-2.3619,-2.3653,-2.3665,-2.3637,-2.3653,-2.3651,-2.3644,-2.3653,-2.3644,-2.3655,-2.363,-2.3631,-2.3645,-2.3636,-2.3663,-2.3632,-2.3646,-2.3646,-2.3647,-2.3719,-2.3734,-2.3784,-2.3694,-2.3695,-2.3695,0,-2.3674,-2.3678,-2.3712,-2.3704,-2.3708,-2.3723,-2.3727,-2.3736,-2.3733,-2.3726,-2.3729,-2.3711,-2.3728,-2.37,-2.3723,-2.3702,-2.3707,-2.3703,-2.3705,-2.3705,-2.3674,-2.3721,-2.38,-2.3808,-2.3706,-2.3705,-2.3704,0,-2.3733,-2.3746,-2.3768,-2.3769,-2.376,-2.3771,-2.3768,-2.3763,-2.3768,-2.3771,-2.3773,-2.3779,-2.3782,-2.3786,-2.3771,-2.3751,-2.3796,-2.3766,-2.3791,-2.3791,-2.3801,-2.3801,-2.3882,-2.3804,-2.3804,-2.3804,-2.3804,0,-2.3796,-2.3818,-2.3794,-2.3808,-2.3831,-2.3811,-2.3835,-2.3829,-2.3825,-2.3837,-2.3813,-2.3825,-2.3803,-2.3813,-2.3801,-2.3821,-2.3823,-2.3818,-2.3814,-2.382,-2.3821,-2.3823,-2.3819,-2.3806,-2.3806,-2.3805,-2.3805,0,-2.3866,-2.3851,-2.3873,-2.3862,-2.386,-2.3878,-2.3868,-2.388,-2.387,-2.3885,-2.3888,-2.3872,-2.3882,-2.3867,-2.3875,-2.3867,-2.3896,-2.3887,-2.3896,-2.3894,-2.3919,-2.3917,-2.4004,-2.4014,-2.393,-2.3931,-2.3932,0,-2.3907,-2.3923,-2.3914,-2.392,-2.3918,-2.3928,-2.3932,-2.3912,-2.3917,-2.3915,-2.3927,-2.3935,-2.394,-2.3956,-2.3946,-2.3952,-2.3943,-2.3973,-2.3944,-2.3949,-2.3943,-2.3942,-2.3944,-2.3979,-2.398,-2.3981,-2.3982,0,-2.3982,-2.3973,-2.398,-2.3984,-2.3989,-2.3991,-2.3992,-2.3998,-2.3977,-2.3984,-2.3993,-2.3997,-2.4005,-2.4012,-2.4015,-2.4012,-2.3994,-2.3991,-2.3997,-2.4003,-2.4008,-2.4005,-2.3913,-2.3989,-2.3988,-2.3988,-2.3987,-2.3987,-2.4038,-2.4051,-2.4046,-2.4054,-2.4052,-2.4053,-2.4063,-2.4054,-2.4061,-2.4066,-2.4054,-2.4066,-2.4062,-2.4064,-2.4063,-2.4072,-2.4059,-2.4067,-2.407,-2.4072,-2.4076,-2.4006,-2.4072,-2.4072,-2.4072,-2.4072,-2.4072,0,-2.4112,-2.4107,-2.4114,-2.4115,-2.4121,-2.4102,-2.4102,-2.4108,-2.4119,-2.4117,-2.4122,-2.4132,-2.4139,-2.4129,-2.4134,-2.4144,-2.4135,-2.4146,-2.4145,-2.4144,-2.4087,-2.4082,-2.4152,-2.4152,-2.4152,-2.4152,-2.4152,-2.4152,-2.4151,-2.4171,-2.4162,-2.418,-2.4175,-2.4186,-2.4188,-2.4188,-2.4186,-2.4198,-2.4204,-2.4197,-2.4192,-2.4196,-2.4202,-2.4199,-2.4202,-2.4215,-2.4209,-2.4156,-2.4148,-2.4141,-2.4135,-2.4216,-2.4216,-2.4265,-2.4266,-2.4266]}]]